カタログに戻る

FALCON 9 R/B

運用中HEO
NORAD 54226·ROCKET BODY·🇺🇸 United States

打ち上げ Nov 3, 2022 から Cape Canaveral Space Force Station

Loading…

次のパス (今後24時間)

TLE

最新Source: Space-Track

元期: Sep 13, 2026, 04:01 UTC

1 54226U 22146B   26256.16799113 -.00000249  00000-0  50537-3 0  9991
2 54226  27.0831  33.1033 7979135 292.9912   5.9517  1.39827313 18935

AllMySatでFALCON 9 R/Bをリアルタイム追跡

Download on the App Store